Regional Weather Roundup
Issued by NWS Cleveland, OH

Home | Current Version | Previous Version | Text Only | Print | Product List | Glossary Off
Versions: 1 2 3 4 5 6 7 8 9 10 11 12 13 14 15 16 17 18 19 20 21 22 23 24 25 26 27 28 29 30 31 32 33 34 35 36 37 38 39 40 41 42 43 44 45 46 47 48 49 50

000
ASUS41 KCLE 231702
RWRCLE
OHIO REGIONAL WEATHER ROUNDUP
NATIONAL WEATHER SERVICE CLEVELAND, OH
100 PM EDT FRI JUN 23 2017

NOTE: "FAIR" INDICATES FEW OR NO CLOUDS BELOW 12,000 FEET WITH NO
SIGNIFICANT WEATHER AND/OR OBSTRUCTIONS TO VISIBILITY.

OHZ001>008-015>018-024>027-034-035-043-044-231800-
   NORTHWEST OHIO

CITY           SKY/WX    TMP DP  RH WIND       PRES   REMARKS
DEFIANCE       CLOUDY    75  68  78 S9        29.63S
FINDLAY        LGT RAIN  72  68  87 SW13      29.65R
TOLEDO EXPRESS CLOUDY    75  70  84 SW10      29.62R
TOLEDO EXEC    CLOUDY    77  71  82 SW10      29.62R
LIMA           NOT AVBL
$$

OHZ009>014-019>023-028>033-038-089-231800-
   NORTHEAST OHIO

CITY           SKY/WX    TMP DP  RH WIND       PRES   REMARKS
CLE-HOPKINS    CLOUDY    78  73  84 SW13      29.63F
CLE-LAKEFRONT  LGT RAIN  76  73  91 S15       29.59F
CUY CO. ARPT   PTSUNNY   77  73  88 SW8       29.62F
LORAIN-ELYRIA  CLOUDY    75  68  78 SW10      29.63F
ASHTABULA      LGT RAIN  74  72  93 SW13      29.63F
AKRON-CANTON   TSTM      71  67  87 W10       29.69S VSB 1
WOOSTER        LGT RAIN  70  68  93 SW12      29.69S
MANSFIELD      LGT RAIN  69  69 100 SW12      29.70R FOG
YOUNGSTOWN     TSTM      73  70  90 SW8       29.66F FOG
$$

OHZ042-051>053-060>062-070>072-077>081-231800-
  SOUTHWEST OHIO

CITY           SKY/WX    TMP DP  RH WIND       PRES   REMARKS
CINC-COVINGTON CLOUDY    81  71  71 SW16G24   29.73F
CINC-LUNKEN    PTSUNNY   79  76  90 SW12      29.73F
HAMILTON       CLOUDY    78  73  84 W14G21    29.74S
DAYTON         HVY RAIN  67  67 100 W6        29.76R VSB 3/4
WRIGHT-PAT AFB LGT RAIN  69  69 100 W8        29.75R FOG
DAYTON GENERAL LGT RAIN  75  72  90 W14       29.74R
WILMINGTON     PTSUNNY   78  73  84 SW17      29.72F
$$

OHZ036-037-039>041-045>050-054>059-063>069-073>076-082>088-231800-
  CENTRAL AND SOUTHEAST OHIO

CITY           SKY/WX    TMP DP  RH WIND       PRES   REMARKS
COLUMBUS       LGT RAIN  72  72 100 SW7       29.72F
OSU AIRPORT    LGT RAIN  73  73 100 SW8       29.72S
BOLTON FIELD   LGT RAIN  73  73 100 SW15G22   29.73R
RICKENBACK AFB CLOUDY    74  73  97 SW14G22   29.72S
NEWARK         CLOUDY    73  70  90 W9        29.72F
MARION         RAIN      70  68  93 SW9       29.71F FOG
LANCASTER      LGT RAIN  78  72  81 SW14G22   29.73F
ZANESVILLE     CLOUDY    78  72  81 SW13G20   29.71F
NEW PHILLY     NOT AVBL
$$




USA.gov is the U.S. government's official web portal to all federal, state and local government web resources and services.